CAPE
0 0 0 0 0 0 0 0 0 0 0 0 0 0 0 0 0 0 0 0 0 0
0 0 0 0 0 0 0 0 0 0 0 0 0 0 0 0 0 0 0 0 0 0
0 0 0 0 0 0 0 0 0 0 0 0 0 0 0 0 0 0 0 0 0 0
0 0 0 0 0 0 0 0 0 0 0 0 0 0 0 0 0 0 0 0 0 0
0 0 0 0 0 0 0 0 0 0 0 0 0 0 0 0 0 0 0 0 0 0
0 0 0 0 0 0 0 0 0 0 0 0 0 0 0 0 0 0 0 0 0 0
0 0 0 0 0 0 0 0 0 0 0 0 0 0 0 0 0 0 0 0 0 0
0 0 0 0 0 0 0 0 0 0 0 0 0 0 0 0 0 0 0 0 0 0
0 0 0 0 0 0 0 0 0 0 0 0 0 0 0 0 0 0 0 0 0 0
0 0 0 0 0 0 0 0 0 0 0 0 0 0 0 0 0 0 0 0 0 0
0 0 0 0 0 0 0 0 0 0 0 0 0 0 0 0 0 0 0 0 0 0
0 0 0 0 0 0 0 0 0 0 0 0 0 0 0 0 0 0 0 0 0 0
0 0 0 0 0 0 0 0 0 0 0 0 0 0 0 0 0 0 0 0 0 0
0 0 0 0 0 0 0 0 0 0 0 0 0 0 0 0 0 0 0 0 0 0
CIN
0 0 0 0 0 0 0 0 0 0 0 0 0 0 0 0 0 0 0 0 0 0
0 0 0 0 0 0 0 0 0 0 0 0 0 0 0 0 0 0 0 0 0 0
0 0 0 0 0 0 0 0 0 0 0 0 0 0 0 0 0 0 0 0 0 0
0 0 0 0 0 0 0 0 0 0 0 0 0 0 0 0 0 0 0 0 0 0
0 0 0 0 0 0 0 0 0 0 0 0 0 0 0 0 0 0 0 0 0 0
0 0 0 0 0 0 0 0 0 0 0 0 0 0 0 0 0 0 0 0 0 0
0 0 0 0 0 0 0 0 0 0 0 0 0 0 0 0 0 0 0 0 0 0
0 0 0 0 0 0 0 0 0 0 0 0 0 0 0 0 0 0 0 0 0 0
0 0 0 0 0 0 0 0 0 0 0 0 0 0 0 0 0 0 0 0 0 0
0 0 0 0 0 0 0 0 0 0 0 0 0 0 -0 0 0 0 0 0 0 0
0 0 0 0 0 0 0 0 0 0 0 0 0 0 0 0 0 0 0 0 0 0
0 0 0 0 0 0 0 0 0 0 0 0 0 0 0 0 0 0 0 0 0 0
0 0 0 0 0 0 0 0 0 0 0 0 0 0 0 0 0 0 0 0 0 -1
0 0 0 0 0 0 0 0 0 0 0 0 0 0 0 0 0 0 0 0 0 -0
Wind_Speed
9 7 9 10 11 13 15 18 19 21 23 25 27 27 26 27 29 32 34 34 33 32
6 7 8 9 10 12 13 16 17 20 22 24 26 26 24 26 29 32 33 33 33 32
7 8 8 7 10 12 13 14 16 19 21 23 24 24 23 26 29 32 33 32 32 31
9 7 6 8 10 12 12 12 15 18 20 22 23 23 24 25 29 31 32 32 31 31
7 5 6 8 10 11 12 12 14 16 18 21 21 21 23 26 28 30 32 32 31 31
6 6 7 8 10 10 11 12 14 15 18 19 19 21 23 25 28 30 30 30 31 32
8 7 6 8 10 10 12 13 13 14 16 18 18 20 22 24 27 29 29 30 30 32
8 7 7 8 9 9 12 13 13 14 16 16 17 19 21 24 27 28 29 30 31 33
8 7 8 8 8 8 11 13 13 14 14 16 18 19 20 23 26 28 30 32 33 34
8 7 8 8 7 8 11 12 13 15 15 17 18 20 22 23 26 28 30 32 34 36
9 9 8 7 8 9 11 12 14 14 15 16 20 22 23 24 26 28 30 31 34 36
9 8 8 8 9 10 11 12 13 13 15 17 21 22 24 26 28 29 31 32 34 35
8 9 9 8 9 10 11 12 14 15 16 18 21 24 26 27 27 29 31 33 34 35
6 7 7 9 9 10 12 13 14 16 17 19 22 24 25 27 27 29 31 33 34 35
Wind_Direction
284 295 309 319 329 336 340 343 349 352 353 353 353 353 354 353 351 349 347 345 344 343
277 292 306 322 333 337 339 343 349 352 352 353 353 354 355 353 351 349 348 348 347 346
278 293 307 322 330 335 335 344 348 349 351 352 353 354 356 353 352 349 349 350 348 346
280 291 306 320 326 333 337 342 344 347 349 351 353 355 355 353 350 350 350 350 348 346
275 285 300 315 322 330 335 338 341 345 349 351 354 356 355 352 352 351 350 348 348 346
269 279 296 310 321 328 334 334 338 344 347 350 352 354 354 353 352 351 350 349 347 345
266 280 294 311 319 326 332 335 337 342 347 349 352 354 354 354 350 350 351 350 348 345
271 278 292 310 317 326 332 336 340 345 345 352 352 353 353 351 349 350 349 348 347 345
271 269 292 306 318 330 336 337 343 343 347 347 352 354 354 350 350 348 347 345 345 345
262 271 290 307 322 332 337 341 340 342 344 347 350 351 348 350 348 346 345 344 343 343
268 280 292 310 319 332 338 338 339 342 346 348 348 347 348 348 346 345 345 345 344 343
267 278 291 305 319 331 337 342 342 344 346 346 345 346 346 345 344 345 345 345 345 345
273 287 299 318 330 336 340 342 344 345 345 344 343 346 344 344 345 344 344 345 346 346
283 294 312 324 332 335 337 340 342 341 342 343 344 343 343 344 345 344 343 344 345 346